Location: Gwatt
(46.7204°N, 7.6223°E)
Time: 00:10:59
(UTC+00:00)

Envisat - Pass Details

Date: 29 November 2020
Orbit: 764 x 766 km, 98.1° (Epoch: 19 January)

Event Time Altitude Azimuth Distance (km) Brightness Sun altitude
Rises 17:50:02 0° 211° (SSW) 3,221 6.8 -20.9°
Reaches altitude 10° 17:53:10 10° 231° (SW) 2,301 6.3 -21.4°
Maximum altitude 17:56:22 17° 271° (W) 1,882 6.0 -22.0°
Drops below altitude 10° 17:59:35 10° 311° (NW) 2,313 6.0 -22.5°
Sets 18:02:46 0° 331° (NNW) 3,245 6.5 -23.1°
